Radioactive Concentration measured by Seawater Radiation Monitor near Fukushima Daiichi Nuclear Power Station
Date,Time,Cs137(Bq/L),Cs134(Bq/L),Total β(Bq/L)
2017/10/14,00:00,1.0,ND,ND
2017/10/14,00:10,0.98,0.036,ND
2017/10/14,00:20,0.99,0.036,ND
2017/10/14,00:30,1.0,0.034,ND
2017/10/14,00:40,0.99,0.041,ND
2017/10/14,00:50,0.98,0.035,ND
2017/10/14,01:00,0.85,0.066,ND
2017/10/14,01:10,0.87,0.062,ND
2017/10/14,01:20,0.86,0.066,ND
2017/10/14,01:30,0.85,0.071,ND
2017/10/14,01:40,0.86,0.060,ND
2017/10/14,01:50,0.90,0.066,ND
2017/10/14,02:00,1.1,0.033,ND
2017/10/14,02:10,1.1,0.033,ND
2017/10/14,02:20,1.1,0.038,ND
2017/10/14,02:30,1.2,0.039,ND
2017/10/14,02:40,1.2,0.048,ND
2017/10/14,02:50,1.2,0.045,ND
2017/10/14,03:00,1.3,0.040,ND
2017/10/14,03:10,1.3,0.045,ND
2017/10/14,03:20,1.3,0.031,ND
2017/10/14,03:30,1.3,0.035,8.9
2017/10/14,03:40,1.3,0.044,ND
2017/10/14,03:50,1.3,0.049,ND
2017/10/14,04:00,1.3,0.060,ND
2017/10/14,04:10,1.3,0.055,ND
2017/10/14,04:20,1.3,0.062,ND
2017/10/14,04:30,1.3,0.058,ND
2017/10/14,04:40,1.2,0.096,ND
2017/10/14,04:50,1.2,0.10,ND
2017/10/14,05:00,1.1,0.11,ND
2017/10/14,05:10,1.1,0.12,ND
2017/10/14,05:20,1.1,0.11,ND
2017/10/14,05:30,1.2,0.076,ND
2017/10/14,05:40,1.2,0.073,ND
2017/10/14,05:50,1.3,0.074,ND
2017/10/14,06:00,1.3,0.057,ND
2017/10/14,06:10,1.3,0.045,ND
2017/10/14,06:20,1.3,0.047,ND
2017/10/14,06:30,1.3,0.047,ND
2017/10/14,06:40,1.3,0.043,ND
2017/10/14,06:50,1.2,0.041,ND
2017/10/14,07:00,1.2,0.054,ND
2017/10/14,07:10,1.2,0.065,ND
2017/10/14,07:20,1.2,0.069,ND
2017/10/14,07:30,1.2,0.075,ND
2017/10/14,07:40,1.2,0.077,ND
2017/10/14,07:50,1.2,0.069,ND
2017/10/14,08:00,1.1,0.10,ND
2017/10/14,08:10,1.1,0.097,ND
2017/10/14,08:20,1.1,0.10,ND
2017/10/14,08:30,1.2,0.078,ND
2017/10/14,08:40,1.2,0.078,ND
2017/10/14,08:50,1.2,0.080,ND
2017/10/14,09:00,1.3,0.085,ND
2017/10/14,09:10,1.3,0.089,ND
2017/10/14,09:20,1.4,0.084,ND
2017/10/14,09:30,1.4,0.070,ND
2017/10/14,09:40,1.3,0.074,ND
2017/10/14,09:50,1.4,0.072,ND
2017/10/14,10:00,1.2,0.11,ND
2017/10/14,10:10,1.3,0.072,ND
2017/10/14,10:20,1.4,0.067,ND
2017/10/14,10:30,1.4,0.067,ND
2017/10/14,10:40,1.4,0.066,ND
2017/10/14,10:50,1.3,0.070,ND
2017/10/14,11:00,1.4,0.059,ND
2017/10/14,11:10,1.4,0.047,ND
2017/10/14,11:20,1.3,0.047,ND
2017/10/14,11:30,1.3,0.053,ND
2017/10/14,11:40,1.3,0.050,ND
2017/10/14,11:50,1.3,0.057,ND
2017/10/14,12:00,1.2,0.072,ND
2017/10/14,12:10,1.2,0.069,ND
2017/10/14,12:20,1.2,0.078,ND
2017/10/14,12:30,1.3,0.080,ND
2017/10/14,12:40,1.3,0.090,ND
2017/10/14,12:50,1.3,0.094,ND
2017/10/14,13:00,1.3,0.073,ND
2017/10/14,13:10,1.3,0.083,ND
2017/10/14,13:20,1.3,0.073,ND
2017/10/14,13:30,1.3,0.070,ND
2017/10/14,13:40,1.3,0.063,ND
2017/10/14,13:50,1.3,0.059,ND
2017/10/14,14:00,1.3,0.073,ND
2017/10/14,14:10,1.3,0.076,ND
2017/10/14,14:20,1.3,0.078,ND
2017/10/14,14:30,1.3,0.073,ND
2017/10/14,14:40,1.3,0.069,ND
2017/10/14,14:50,1.2,0.097,ND
2017/10/14,15:00,1.2,0.081,ND
2017/10/14,15:10,1.2,0.090,ND
2017/10/14,15:20,1.2,0.089,ND
2017/10/14,15:30,1.2,0.10,ND
2017/10/14,15:40,1.2,0.11,ND
2017/10/14,15:50,1.3,0.077,ND
2017/10/14,16:00,1.3,0.086,ND
2017/10/14,16:10,1.2,0.11,ND
2017/10/14,16:20,1.3,0.074,ND
2017/10/14,16:30,1.3,0.068,ND
2017/10/14,16:40,1.3,0.066,ND
2017/10/14,16:50,1.3,0.069,ND
2017/10/14,17:00,1.3,0.071,ND
2017/10/14,17:10,1.2,0.11,ND
2017/10/14,17:20,1.4,0.074,ND
2017/10/14,17:30,1.3,0.076,ND
2017/10/14,17:40,1.2,0.12,ND
2017/10/14,17:50,1.2,0.11,ND
2017/10/14,18:00,1.2,0.11,ND
2017/10/14,18:10,1.3,0.073,ND
2017/10/14,18:20,1.3,0.067,ND
2017/10/14,18:30,1.3,0.072,ND
2017/10/14,18:40,1.3,0.067,ND
2017/10/14,18:50,1.3,0.062,ND
2017/10/14,19:00,1.3,0.062,ND
2017/10/14,19:10,1.3,0.070,ND
2017/10/14,19:20,1.3,0.065,ND
2017/10/14,19:30,1.3,0.064,ND
2017/10/14,19:40,1.2,0.076,ND
2017/10/14,19:50,1.2,0.074,ND
2017/10/14,20:00,1.2,0.076,ND
2017/10/14,20:10,1.3,0.070,ND
2017/10/14,20:20,1.3,0.075,ND
2017/10/14,20:30,1.3,0.065,ND
2017/10/14,20:40,1.3,0.055,ND
2017/10/14,20:50,1.3,0.057,ND
2017/10/14,21:00,1.2,0.066,ND
2017/10/14,21:10,1.2,0.056,ND
2017/10/14,21:20,1.2,0.067,ND
2017/10/14,21:30,1.2,0.066,ND
2017/10/14,21:40,1.1,0.062,ND
2017/10/14,21:50,1.1,0.056,ND
2017/10/14,22:00,1.1,0.042,ND
2017/10/14,22:10,1.1,0.048,ND
2017/10/14,22:20,1.2,0.042,ND
2017/10/14,22:30,1.1,0.037,ND
2017/10/14,22:40,1.1,0.048,ND
2017/10/14,22:50,1.1,0.044,ND
2017/10/14,23:00,0.99,0.079,ND
2017/10/14,23:10,0.99,0.068,ND
2017/10/14,23:20,1.1,ND,ND
2017/10/14,23:30,0.97,0.068,ND
2017/10/14,23:40,0.98,0.057,ND
2017/10/14,23:50,0.96,0.060,ND
